[[{"header":{"parameterUnit":"m.s-1","parameterCategory":1,"la1":30.2991,"la2":30.254,"lo1":-89.0895,"lo2":-89.0444,"dy":0.0017,"dx":0.0017,"nx":28,"ny":28,"refTime":"2024-07-18T03:00:00:Z","depth":0,"parameterNumber":2,"parameterNumberName":"U-component_of_WINDS"},"data":[0,0,0,0,0,0,0,0,0,0,0,0,0,0,0,0,0,0,0,0,0,0,0,0,0,0,0,0,0,0,0,0,0,0,0,0,0,0,0,0,0,0,0,0,0,0,0,0,0,0,0,0,0,0,0,0,0,0,1.6398,1.6399,0,1.6483,1.6484,1.6485,1.6497,1.6497,1.6496,1.6495,1.6581,1.6584,1.6587,0,0,0,0,0,0,0,0,0,0,0,0,0,1.6245,1.6248,1.6398,1.6399,1.64,1.6483,1.6484,1.6485,1.6498,1.6497,1.6496,1.6495,1.658,1.6583,1.6587,0,0,0,0,0,0,0,0,0,0,0,0,0,1.6319,1.6249,1.6398,1.6416,1.6419,1.6482,1.6484,1.6485,1.6498,1.6497,1.6495,1.6494,1.6579,1.6583,1.6587,1.6638,0,0,1.6601,1.6603,0,0,0,0,0,0,0,0,1.6315,1.6325,1.6413,1.6415,1.6418,1.6478,1.6461,1.6536,1.6498,1.6468,1.6495,1.6494,1.6547,1.6554,1.6573,1.6642,1.6646,1.6601,1.6604,1.6606,1.6607,0,0,0,0,0,0,0,1.631,1.6321,1.6432,1.6414,1.6417,1.642,1.6429,1.6476,1.6513,1.647,1.6471,1.6481,1.6549,1.6568,1.6575,1.6647,1.6601,1.6605,1.6608,1.661,1.6761,1.6763,0,0,0,0,0,0,1.6301,1.6317,1.6429,1.6434,1.6363,1.6424,1.6434,1.646,1.6512,1.6519,1.6482,1.6482,1.6561,1.657,1.6578,1.664,1.6606,1.661,1.6613,1.676,1.6762,1.6763,0,0,0,0,0,0,1.6298,1.6311,1.6425,1.6376,1.6391,1.6428,1.6457,1.6462,1.6482,1.6522,1.6528,1.6496,1.6561,1.6572,1.6623,1.6643,1.6612,1.6616,1.6758,1.676,1.6762,1.6765,0,0,0,0,0,0,1.6294,1.631,1.633,1.6376,1.6393,1.6469,1.6458,1.6465,1.649,1.649,1.6536,1.6542,1.6561,1.6616,1.6627,1.6649,1.662,1.6757,1.6759,1.6762,1.6763,1.6767,1.677,0,0,0,0,0,1.6288,1.6327,1.6331,1.6344,1.6419,1.647,1.648,1.6501,1.6492,1.6512,1.6537,1.6541,1.6639,1.6621,1.6634,1.6657,1.6755,1.6759,1.6761,1.6762,1.6766,1.677,0,0,0,0,0,0,1.6282,1.6334,1.6338,1.6394,1.6428,1.6472,1.6498,1.6505,1.6542,1.654,1.6564,1.6574,1.6624,1.6646,1.6625,1.6709,1.6697,1.6702,1.6692,1.6697,1.67,1.6693,1.6624,0,0,0,0,0,1.6287,1.6325,1.6368,1.6413,1.643,1.6461,1.6484,1.6497,1.6533,1.6548,1.6577,1.6611,1.665,1.6675,1.6713,1.6767,1.6776,1.6789,1.6792,1.6795,1.6799,1.6829,1.6834,1.6773,1.6773,1.6773,0,0,1.6298,1.6331,1.6353,1.6412,1.644,1.6478,1.6473,1.6514,1.6542,1.6554,1.6604,1.6626,1.6666,1.6719,1.6744,1.6739,1.6819,1.6799,1.68,1.6803,1.6832,1.6838,1.6843,1.6775,1.6774,1.6774,0,0,1.6337,1.6366,1.6406,1.6434,1.6477,1.6498,1.6507,1.6551,1.6567,1.6618,1.6627,1.6661,1.6727,1.6755,1.6778,1.6828,1.6833,1.684,1.6857,1.6885,1.689,1.6894,1.6911,1.6917,1.6844,1.6844,1.6844,0,1.6345,1.6403,1.6426,1.6466,1.6491,1.6504,1.6545,1.6571,1.6623,1.664,1.6634,1.6717,1.6745,1.6804,1.6816,1.6835,1.6846,1.6834,1.6888,1.6892,1.6897,1.6913,1.6919,1.6845,1.6844,1.6844,1.6844,0,1.641,1.6451,1.6478,1.6528,1.6557,1.6597,1.6625,1.6651,1.6662,1.6683,1.6734,1.6769,1.6813,1.6828,1.6839,1.6889,1.6884,1.6883,1.6871,1.6903,1.6918,1.6925,1.6845,1.6845,1.6845,1.6845,0,0,1.6447,1.651,1.6519,1.6542,1.659,1.6621,1.6662,1.6706,1.6728,1.6764,1.6798,1.6854,1.6852,1.6878,1.6893,1.6918,1.6954,1.6913,1.6914,1.6918,1.701,1.701,1.7017,1.6958,1.6959,1.696,1.7006,0,1.6491,1.6564,1.6585,1.6646,1.6683,1.6696,1.6732,1.6765,1.6786,1.682,1.6843,1.6882,1.6878,1.6893,1.6919,1.6944,1.6972,1.6941,1.6989,1.699,1.6977,1.7025,1.7026,1.7067,1.7012,1.7014,1.7014,0,1.6551,1.6589,1.6653,1.6696,1.6713,1.6744,1.6786,1.6819,1.6856,1.687,1.6899,1.6911,1.6953,1.694,1.6998,1.6977,1.6998,1.7013,1.7015,1.7019,1.7003,1.703,1.7081,1.7087,1.7024,1.7024,1.7023,0,1.657,1.6637,1.6684,1.6703,1.6755,1.6776,1.6799,1.6835,1.686,1.6897,1.6913,1.6954,1.6977,1.7008,1.7031,1.7019,1.7086,1.7075,1.7098,1.7097,1.7111,1.7109,1.7165,1.7126,1.7126,1.7126,1.7126,0,1.6616,1.6655,1.6693,1.6722,1.6766,1.679,1.6833,1.6855,1.6888,1.6921,1.6935,1.6966,1.6995,1.7029,1.7047,1.7092,1.7102,1.7114,1.7118,1.7112,1.711,1.7125,1.7122,1.7128,1.7127,1.7127,1.7127,0,1.6644,1.6671,1.6724,1.6768,1.678,1.681,1.6848,1.6877,1.6898,1.694,1.6951,1.6985,1.7027,1.7053,1.7105,1.7118,1.7167,1.717,1.7154,1.7155,1.7176,1.7174,1.7242,1.7252,1.7208,1.7208,1.7209,0,1.6671,1.6701,1.6749,1.6773,1.6795,1.6833,1.6859,1.6884,1.691,1.6955,1.6977,1.702,1.7055,1.712,1.7149,1.7189,1.7194,1.7215,1.72,1.7192,1.7193,1.719,1.7193,1.7217,1.7217,1.7218,1.7218,0,1.6716,1.6728,1.6764,1.6806,1.6836,1.687,1.6903,1.6922,1.6952,1.6981,1.7023,1.7051,1.7104,1.7146,1.7189,1.7211,1.722,1.7223,1.723,1.7223,1.7212,1.7218,1.7159,1.7221,1.722,1.722,1.722,1.722,1.6744,1.6771,1.6809,1.6849,1.6877,1.6908,1.6936,1.6962,1.6998,1.7044,1.7056,1.7101,1.7137,1.7196,1.7219,1.7254,1.7251,1.7262,1.7264,1.7266,1.7266,1.7208,1.7262,1.7262,1.7262,1.7262,1.7262,0,1.6788,1.6813,1.685,1.6896,1.6928,1.6934,1.6971,1.6997,1.7036,1.7069,1.7104,1.7152,1.7193,1.7225,1.7267,1.7288,1.7293,1.7298,1.7296,1.7301,1.7267,1.7256,1.7293,1.7293,1.7293,1.7293,1.7293,1.7293,1.6815,1.6861,1.6877,1.6937,1.6962,1.7005,1.7026,1.7055,1.7081,1.7135,1.7169,1.719,1.7223,1.7267,1.7304,1.7313,1.7327,1.7331,1.734,1.7307,1.7304,1.73,1.729,1.7334,1.7334,1.7372,1.7372,1.7372]},{"header":{"parameterUnit":"m.s-1","parameterCategory":1,"la1":30.2991,"la2":30.254,"lo1":-89.0895,"lo2":-89.0444,"dy":0.0017,"dx":0.0017,"nx":28,"ny":28,"refTime":"2024-07-18T03:00:00:Z","depth":0,"parameterNumber":3,"parameterNumberName":"V-component_of_WINDS"},"data":[0,0,0,0,0,0,0,0,0,0,0,0,0,0,0,0,0,0,0,0,0,0,0,0,0,0,0,0,0,0,0,0,0,0,0,0,0,0,0,0,0,0,0,0,0,0,0,0,0,0,0,0,0,0,0,0,0,0,1.291,1.2911,0,1.3034,1.3036,1.3037,1.304,1.3038,1.3037,1.3035,1.3166,1.3171,1.3175,0,0,0,0,0,0,0,0,0,0,0,0,0,1.2676,1.268,1.291,1.2911,1.2913,1.3034,1.3036,1.3037,1.304,1.3038,1.3036,1.3035,1.3164,1.317,1.3176,0,0,0,0,0,0,0,0,0,0,0,0,0,1.2787,1.2682,1.2909,1.2929,1.2932,1.3034,1.3036,1.3038,1.3041,1.3038,1.3036,1.3034,1.3162,1.3169,1.3177,1.3269,0,0,1.3199,1.3202,0,0,0,0,0,0,0,0,1.278,1.2795,1.2924,1.2927,1.2931,1.3019,1.3001,1.3115,1.3041,1.2999,1.3035,1.3033,1.3119,1.313,1.3158,1.3275,1.3281,1.32,1.3204,1.3208,1.321,0,0,0,0,0,0,0,1.2773,1.279,1.2959,1.2926,1.293,1.2932,1.2945,1.3023,1.3071,1.3003,1.3003,1.3018,1.312,1.3151,1.3162,1.3282,1.32,1.3206,1.3211,1.3214,1.348,1.3483,0,0,0,0,0,0,1.2761,1.2784,1.2955,1.2963,1.2848,1.2938,1.2952,1.2993,1.307,1.3079,1.302,1.3017,1.314,1.3153,1.3166,1.3279,1.3208,1.3214,1.3219,1.3478,1.3481,1.3484,0,0,0,0,0,0,1.2756,1.2776,1.295,1.2873,1.2896,1.2944,1.299,1.2997,1.3028,1.3083,1.3091,1.3042,1.3139,1.3156,1.3243,1.3284,1.3218,1.3224,1.3475,1.3479,1.3482,1.3506,0,0,0,0,0,0,1.2749,1.2774,1.281,1.2874,1.29,1.3024,1.2992,1.3001,1.304,1.3038,1.3106,1.3115,1.3138,1.3232,1.325,1.3293,1.323,1.3471,1.3476,1.3481,1.3501,1.351,1.3517,0,0,0,0,0,1.2741,1.2812,1.2811,1.2832,1.2945,1.3027,1.3041,1.3065,1.3043,1.3079,1.3114,1.3113,1.3276,1.3241,1.3262,1.3307,1.3469,1.3475,1.3481,1.3498,1.3508,1.3517,0,0,0,0,0,0,1.2752,1.2821,1.2821,1.2915,1.2965,1.3027,1.3073,1.3076,1.3134,1.313,1.3158,1.3173,1.326,1.3292,1.3252,1.34,1.337,1.338,1.3376,1.3386,1.3394,1.3385,1.3236,0,0,0,0,0,1.2765,1.2826,1.2883,1.296,1.2985,1.3025,1.3061,1.3075,1.3129,1.315,1.3192,1.3244,1.3307,1.3348,1.3409,1.3505,1.3521,1.3547,1.3554,1.3561,1.357,1.3623,1.3635,1.3503,1.3503,1.3503,0,0,1.2794,1.2839,1.2875,1.2963,1.3004,1.3066,1.3043,1.311,1.3157,1.3161,1.3245,1.3278,1.3338,1.343,1.3473,1.3459,1.3609,1.3568,1.3573,1.3579,1.363,1.3643,1.3654,1.3508,1.3507,1.3506,0,0,1.2878,1.2917,1.2986,1.3027,1.3087,1.3113,1.3129,1.3191,1.3213,1.3298,1.3302,1.3358,1.3466,1.3509,1.3544,1.3643,1.3644,1.3662,1.3703,1.3755,1.3765,1.3774,1.381,1.3822,1.367,1.367,1.367,0,1.2906,1.2999,1.3022,1.3089,1.3127,1.3132,1.3202,1.3241,1.3319,1.3346,1.3329,1.3464,1.3505,1.3607,1.3631,1.3659,1.3679,1.3655,1.3761,1.3771,1.378,1.3814,1.3828,1.3672,1.3672,1.3672,1.3672,0,1.3031,1.3096,1.3144,1.3218,1.3262,1.333,1.3363,1.3405,1.3414,1.3442,1.3528,1.3577,1.3648,1.3673,1.3684,1.3777,1.3767,1.3755,1.3726,1.3794,1.3827,1.384,1.3675,1.3674,1.3674,1.3673,0,0,1.3128,1.3211,1.3229,1.3262,1.3329,1.338,1.3448,1.3516,1.3551,1.3604,1.3663,1.3753,1.3743,1.3783,1.3799,1.3844,1.3919,1.3827,1.3829,1.3843,1.4025,1.4033,1.4048,1.3919,1.3922,1.3924,1.402,0,1.3219,1.334,1.3361,1.3467,1.3527,1.3531,1.3591,1.3638,1.3666,1.3721,1.3751,1.3815,1.3796,1.3821,1.3865,1.39,1.3956,1.3893,1.3975,1.3977,1.396,1.4065,1.4075,1.4163,1.4032,1.4035,1.4036,0,1.3343,1.3398,1.3509,1.3567,1.3593,1.3646,1.3709,1.3762,1.3816,1.3832,1.3877,1.3886,1.3958,1.3924,1.4023,1.398,1.4014,1.4036,1.404,1.405,1.4012,1.4078,1.4192,1.4205,1.4056,1.4055,1.4053,0,1.3403,1.3504,1.3584,1.3612,1.3681,1.3719,1.3749,1.3801,1.384,1.3896,1.3921,1.3985,1.402,1.4069,1.4096,1.4069,1.4193,1.4162,1.421,1.4209,1.4237,1.4235,1.4359,1.4257,1.4257,1.4257,1.4257,0,1.3503,1.3571,1.3612,1.3661,1.3737,1.3761,1.3836,1.3866,1.3911,1.3967,1.3975,1.4027,1.4058,1.4115,1.4136,1.4215,1.4231,1.4247,1.4252,1.4247,1.4245,1.427,1.4265,1.426,1.426,1.4259,1.4258,0,1.3584,1.3613,1.3701,1.3758,1.3774,1.3828,1.3878,1.3926,1.3952,1.4022,1.404,1.4081,1.4148,1.4179,1.4263,1.4277,1.4367,1.4367,1.4348,1.435,1.4397,1.4392,1.4542,1.4563,1.4447,1.4448,1.4449,0,1.3647,1.3699,1.3762,1.3799,1.383,1.389,1.3929,1.3954,1.3995,1.406,1.41,1.4167,1.4222,1.4329,1.4367,1.4431,1.4433,1.4481,1.4443,1.4436,1.4435,1.4432,1.4437,1.4489,1.449,1.4491,1.4491,0,1.3755,1.3767,1.3823,1.3885,1.3931,1.3981,1.403,1.406,1.4092,1.4138,1.4206,1.4248,1.4332,1.4399,1.4465,1.4497,1.45,1.4503,1.4517,1.4513,1.4501,1.4509,1.4368,1.45,1.4499,1.4498,1.4498,1.4497,1.383,1.3876,1.3927,1.3989,1.4028,1.4073,1.4121,1.4152,1.4209,1.4279,1.429,1.4362,1.4414,1.4503,1.4537,1.4595,1.4583,1.4605,1.461,1.4615,1.4618,1.449,1.4607,1.4606,1.4606,1.4606,1.4606,0,1.3939,1.3972,1.4029,1.4096,1.4145,1.4141,1.4195,1.4236,1.43,1.4347,1.4401,1.4478,1.4543,1.4585,1.465,1.4688,1.4691,1.4704,1.4702,1.471,1.4624,1.4605,1.4701,1.4701,1.4701,1.4701,1.4701,1.4701,1.4002,1.4081,1.4098,1.4196,1.4228,1.4298,1.4329,1.4371,1.4409,1.4495,1.4548,1.4574,1.462,1.4688,1.4747,1.4758,1.4782,1.4796,1.4806,1.4726,1.4716,1.4707,1.4689,1.4801,1.4801,1.4888,1.4888,1.4889]}]]